Weather in Hilton Head Island

United States     32°11′46″N   80°44′18″W
В апреле 2022 года жителям России запретили посещать сайт meteo.paraplan.net по решению Генеральной прокуратуры. Аудитория сайта уменьшилась в 10 раз. Владельцы сайта не видят смысла в поддержке погодного сервера в таких условиях. Сайт будет закрыт в октябре.
temp.,
°C
wind,
m/s
gust,
m/s
humid.,
%
clouds,
%
prec.,
mm/h
press.,
hPa
HPBL,
m
4 october, tue
tue423:00+17nne510740 0.0 1019661
02:00+15nne410780 0.0 1018533
05:00+14n510710 0.0 1018487
08:00+13n512720 0.0 1019456
11:00+18nne58530 0.0 1020768
14:00+22nne46350 0.0 10181317
17:00+23nne34350 0.0 10161342
20:00+19ne234886 0.0 1017191
5 october, wed
wed523:00+19s23494 0.0 1017237
02:00+17sw355820 0.0 1016170
05:00+15wnw356785 0.0 1017117
08:00+14wnw356917 0.0 1018163
11:00+20wnw464925 0.0 1018599
14:00+25nw344394 0.0 1017963
17:00+25n234270 0.0 1016828
20:00+20e125419 0.0 101761
6 october, thu
thu623:00+20se13604 0.0 1018222
02:00+19sw236253 0.0 1018195
05:00+17w2272100 0.0 101869
08:00+17nnw11760 0.0 101954
11:00+23sse12580 0.0 1020493
14:00+24sse54580 0.0 1018974
17:00+24sse44620 0.0 1017443
20:00+21sse36770 0.0 1018209
7 october, fri
fri723:00+21ssw34810 0.0 1019131
02:00+20ssw35820 0.0 1019156
05:00+19wsw23870 0.0 101988
08:00+18w23830 0.0 102083
11:00+24sw23551 0.0 1020431
14:00+26s33450 0.0 10181015
17:00+25sse4355100 0.0 1017386
20:00+22s367361 0.0 1018116
8 october, sat
sat823:00+22s487960 0.0 1018173
02:00+20w3581100 0.0 1019153
05:00+19wsw356727 0.0 1019115
08:00+18wnw356624 0.0 1020124
11:00+23n455599 0.0 1021507
14:00+25e445198 0.0 1020791
17:00+22e567472 0.0 1020451
20:00+21ene57825 0.0 1021444